Location: Willingham
(52.3167°N, 0.0667°E)
Time: 19:23:33
(UTC+00:00)

Meteor 2-15 - Pass Details

Date: 19 May 2025
Orbit: 935 x 956 km, 82.5° (Epoch: 22 June)

Event Time Altitude Azimuth Distance (km) Brightness Sun altitude
Rises 22:34:51 0° 349° (N) 3,631 9.3 -15.6°
Reaches altitude 10° 22:37:22 10° 351° (N) 2,679 8.1 -15.7°
Maximum altitude 22:43:30 74° 77° (ENE) 983 4.5 -16.0°
Enters shadow 22:47:15 25° 159° (SSE) 1,815 5.3 -16.2°
